カタログに戻る

STARLINK-34818

運用中通信SSO
NORAD 65238·PAYLOAD·🇺🇸 United States

打ち上げ Aug 18, 2025 から Vandenberg Space Force Base

Loading…

次のパス (今後24時間)

TLE

最新Source: CelesTrak SupGP

元期: Sep 14, 2026, 14:26 UTC

1 65238C 25179D   26257.60187500  .00027360  00000+0  84917-3 0  2573
2 65238  97.2838 296.9312 0000993 115.1446 237.6561 15.33430977    11

AllMySatでSTARLINK-34818をリアルタイム追跡

Download on the App Store